Wind_Speed
43 43 43 44 44 45 46 46 46 46 46 46 46 47 47 47 47 48 47 46 44 41 39 37 37 36 34 33 32 32 31 31 30 29 29 28 27 27 27 27 26 26 26 26 26 26 26 25 26 25 25 24 24 23 22 21 21 20 20 19 20 19 18 18 18 18 18 17 18 20 18 17 17 19 20 19 19 19 19 19 21 21 23 24 23 22 23 26
40 40 41 41 41 42 43 44 44 45 45 44 44 44 44 45 45 45 46 46 45 43 41 38 37 37 35 34 32 32 31 31 30 30 29 28 27 27 26 26 25 25 25 25 25 24 24 24 24 23 23 22 22 21 20 20 20 19 19 19 20 19 18 19 19 18 18 18 19 20 19 18 18 18 19 20 19 20 19 19 22 22 22 22 20 20 22 26
38 39 39 39 39 40 40 41 42 43 43 43 43 42 42 43 43 44 44 45 45 44 42 40 38 37 36 34 33 32 31 31 31 30 29 28 27 26 26 25 25 24 24 24 24 23 23 23 23 23 22 22 22 21 20 20 20 20 20 20 20 20 20 20 20 20 20 20 19 20 20 19 19 18 19 21 21 21 19 20 25 23 22 21 18 21 26 26
38 38 38 38 38 38 38 39 40 41 41 41 42 41 41 41 42 42 43 43 44 44 44 42 40 38 37 35 33 32 31 31 32 30 29 28 27 26 26 25 25 24 24 23 23 23 23 23 23 23 23 22 22 22 21 21 21 21 21 20 21 21 21 20 21 21 21 21 20 20 20 19 20 19 19 21 22 23 20 21 26 25 23 22 19 25 29 25
37 38 38 38 37 37 36 37 37 38 39 40 40 40 40 40 40 41 42 42 43 44 44 43 42 39 38 36 34 32 31 32 32 30 29 28 27 26 26 25 25 24 24 24 23 23 23 23 24 23 23 23 23 23 23 23 22 22 22 21 22 23 21 20 22 21 21 22 21 21 21 20 21 21 21 22 22 24 23 21 25 27 25 24 23 27 28 24
36 37 38 38 38 37 36 36 36 37 37 38 38 38 39 39 40 40 41 42 42 43 44 44 43 41 39 37 36 33 32 33 32 31 30 29 28 27 26 26 25 24 24 24 24 24 24 24 24 24 24 23 23 24 24 24 24 23 23 23 24 24 21 21 22 22 22 23 23 23 21 21 22 22 23 23 23 24 25 24 24 28 27 26 27 27 28 28
36 37 38 39 38 37 36 36 35 36 36 36 36 37 37 37 38 39 40 41 42 42 43 45 45 43 40 38 37 34 33 34 32 31 31 29 28 27 26 26 25 25 25 25 25 25 25 25 25 25 24 24 25 25 26 25 25 24 24 24 25 24 22 22 23 23 24 24 24 24 23 23 23 23 25 25 26 25 26 26 25 27 27 28 30 29 29 31
36 37 38 39 39 38 37 36 35 35 35 35 35 35 35 36 37 38 39 41 42 42 43 44 45 45 42 39 37 35 34 34 33 32 32 30 29 28 27 27 26 25 26 25 25 25 25 26 25 25 24 25 26 26 27 26 25 25 24 25 26 25 24 23 24 25 25 26 26 25 24 25 25 25 26 27 27 27 26 26 27 28 27 28 30 29 30 32
36 36 37 38 39 38 37 36 35 34 34 34 34 34 34 34 35 36 38 39 41 42 43 44 45 45 44 41 38 36 36 35 33 33 32 31 30 29 28 28 27 26 26 26 26 26 26 26 26 25 25 25 26 27 27 27 26 26 26 26 27 26 25 25 25 26 27 28 27 27 26 27 28 28 27 28 28 26 27 26 28 29 27 29 29 27 31 33
35 36 36 37 38 37 36 35 34 33 33 33 32 32 32 33 34 35 36 38 40 42 44 44 45 45 44 43 40 37 38 36 34 34 33 32 31 30 29 28 28 27 27 27 27 26 26 27 27 26 26 26 27 28 28 27 27 28 27 27 27 26 26 26 27 27 28 29 29 29 29 29 29 29 27 27 28 26 26 27 28 30 29 30 30 29 33 35
35 35 35 35 36 35 34 33 32 31 31 31 31 32 32 32 33 34 35 37 39 41 44 45 45 44 44 44 41 39 40 37 35 35 33 33 32 31 30 29 28 28 28 28 27 27 27 27 28 27 26 27 28 28 28 28 29 29 28 28 28 27 27 28 28 29 30 30 31 30 30 30 29 30 28 27 28 27 26 27 29 30 30 32 33 33 35 36
37 35 34 34 34 33 31 30 29 29 29 29 30 31 31 32 32 33 34 36 38 40 43 45 45 44 44 44 42 42 41 38 37 36 34 34 33 32 31 30 29 29 28 28 28 28 28 28 28 27 28 29 28 28 29 29 29 29 28 28 28 28 28 29 29 30 31 32 32 32 31 30 29 30 29 27 28 28 27 28 29 31 31 33 35 36 36 37
39 37 35 33 32 30 29 27 26 27 27 27 28 29 30 31 31 31 33 35 37 39 41 44 45 44 43 43 43 44 41 39 39 36 35 34 34 33 32 31 31 30 29 29 29 29 29 29 28 28 29 28 27 29 30 29 29 29 29 29 28 29 29 28 30 31 32 33 33 33 32 30 27 30 32 28 27 29 28 29 31 32 32 34 37 38 37 38
42 40 37 35 32 29 27 25 25 25 25 26 27 28 28 28 29 29 30 33 35 37 39 42 44 44 43 43 45 45 42 41 40 37 36 35 34 34 33 33 32 31 31 30 31 30 30 29 29 29 29 28 28 31 30 29 30 30 30 30 30 31 30 28 31 33 32 34 35 34 33 31 26 27 34 32 27 29 29 30 33 33 33 36 38 39 38 39
44 42 40 37 33 29 27 25 24 24 24 24 25 25 25 25 25 26 27 29 31 34 37 40 42 43 42 42 45 45 43 42 41 39 37 36 35 35 35 34 33 33 32 32 32 31 31 30 30 30 29 29 31 31 30 31 32 32 32 32 32 33 31 28 31 36 33 34 37 35 34 33 27 24 32 35 30 29 30 31 34 35 34 37 39 40 39 39
45 44 42 39 36 31 27 25 24 23 23 22 22 22 21 21 21 21 22 24 26 29 33 37 40 41 41 42 44 44 43 42 42 41 39 37 36 36 36 35 35 34 34 34 33 33 32 32 31 32 31 32 32 31 32 33 33 33 34 33 34 35 34 30 31 36 36 34 37 37 36 35 32 25 28 35 34 30 31 33 35 36 35 38 39 40 40 41
46 44 43 41 39 34 30 26 25 23 22 21 20 19 18 18 17 17 18 19 21 25 29 33 36 40 41 41 42 43 44 44 43 42 41 39 38 37 36 36 36 36 35 35 35 34 34 33 33 33 33 33 33 33 33 34 34 35 35 36 37 37 36 34 32 33 37 38 37 37 38 37 35 31 27 32 37 33 32 34 36 36 37 38 40 39 40 40
46 45 44 43 42 39 34 29 26 24 23 21 19 18 17 16 15 15 15 16 18 20 24 29 34 37 39 40 41 42 44 45 43 43 42 41 39 38 37 37 37 37 36 37 36 36 35 35 35 34 34 35 34 34 34 35 36 35 36 37 38 38 37 39 36 31 34 41 39 37 39 38 37 36 30 30 37 36 32 34 36 37 38 39 40 39 38 38
47 46 45 44 44 43 39 34 29 26 24 22 20 19 17 15 14 13 13 14 15 17 21 25 31 34 36 39 40 40 43 44 43 43 43 42 41 40 39 38 37 37 37 38 38 37 37 37 37 36 36 36 35 35 36 37 36 36 38 38 38 38 38 41 40 33 32 40 42 39 40 40 39 39 35 31 36 38 34 34 35 36 39 40 39 40 38 36
47 47 46 46 46 46 44 39 34 30 27 24 21 20 18 16 15 13 12 12 12 15 18 22 28 32 35 37 38 39 42 44 44 43 42 42 41 41 40 39 39 38 37 38 38 37 38 38 38 38 37 38 37 38 39 38 37 38 39 38 38 38 40 42 43 38 34 40 44 40 39 41 40 41 39 34 35 38 36 34 36 36 38 39 39 39 38 36
49 48 48 47 48 48 47 46 41 35 31 27 24 21 19 18 16 13 12 11 11 13 16 21 25 29 32 34 36 38 40 43 44 43 41 41 41 40 40 40 40 40 40 40 38 37 39 38 38 38 38 39 38 39 41 40 39 39 39 39 39 39 41 43 45 41 33 36 44 41 38 41 41 41 42 38 36 38 37 35 36 36 37 39 38 38 38 36
50 50 50 50 50 50 50 50 48 43 38 32 28 24 21 19 16 13 12 10 10 11 14 18 22 25 29 31 34 37 40 42 43 43 41 40 39 38 38 39 39 40 40 40 39 39 40 39 39 38 38 37 37 40 42 40 39 40 39 39 39 39 40 42 45 42 32 33 41 42 39 40 42 41 42 42 38 36 37 36 36 37 37 38 37 36 37 36
51 52 52 52 52 52 52 52 52 50 45 39 34 30 25 22 19 17 13 10 9 10 11 14 19 23 26 28 32 36 39 41 42 43 42 39 36 34 35 37 37 38 38 39 38 39 41 40 39 38 37 36 38 41 42 39 39 39 38 38 38 39 39 40 42 41 35 33 39 42 40 40 41 41 40 42 41 37 36 36 36 36 37 38 37 36 36 35
51 52 53 53 54 54 54 53 53 53 51 47 43 38 31 26 23 21 18 13 11 11 9 10 14 19 23 27 30 33 37 40 40 42 42 39 35 32 32 33 34 35 36 36 37 38 40 39 38 38 37 37 40 42 41 39 39 39 38 38 39 39 38 39 41 40 37 36 40 40 39 40 41 40 40 42 41 38 36 37 36 35 36 37 36 35 35 34
51 52 53 54 54 55 55 55 54 53 52 52 51 45 37 31 27 25 21 17 15 13 10 9 10 14 19 23 27 30 34 38 39 41 42 42 39 36 34 32 31 32 33 33 33 36 38 36 35 34 35 39 42 42 41 41 40 40 40 39 40 40 38 38 41 41 37 37 39 39 38 41 42 41 42 42 40 38 37 37 36 35 36 36 35 34 34 33
52 52 53 54 54 55 56 56 55 54 54 54 54 50 43 37 33 29 24 20 18 16 12 9 8 10 14 18 23 27 31 35 38 40 42 43 44 43 40 37 34 32 31 31 32 35 36 34 33 32 33 38 40 39 39 40 39 39 39 40 39 39 38 38 40 41 38 36 39 40 40 42 43 42 42 42 40 38 37 37 36 36 36 36 34 33 31 31
51 53 53 54 55 56 56 57 56 55 55 55 53 51 49 45 40 33 28 24 22 20 16 11 8 7 9 14 18 22 27 32 36 39 41 43 45 46 46 44 40 36 33 32 33 35 35 35 34 34 36 38 39 39 39 38 38 39 40 39 38 38 38 38 40 40 38 38 39 42 43 43 42 42 42 41 40 39 38 37 37 37 36 36 34 32 31 30
49 52 53 54 55 56 57 58 58 57 56 56 55 52 50 49 45 39 34 31 29 25 19 14 10 7 7 11 14 17 22 27 32 37 40 43 45 46 47 47 46 45 41 37 37 36 35 35 35 35 36 39 40 41 41 40 39 41 42 40 39 40 39 39 41 42 41 42 41 43 45 43 41 41 41 40 39 40 40 38 37 37 37 36 34 32 31 29
47 49 52 54 55 57 58 59 59 58 57 57 57 53 49 49 47 44 41 38 35 30 23 19 15 11 8 9 11 14 18 22 26 32 36 41 44 46 48 48 48 48 47 45 44 42 39 39 39 38 38 40 42 43 43 43 41 42 42 40 41 41 42 43 44 44 45 44 42 43 46 43 40 41 41 41 40 40 41 39 38 37 37 37 35 33 31 30
45 47 49 52 55 56 58 59 59 60 59 58 58 55 51 49 49 48 46 44 41 36 29 24 21 16 12 9 9 11 14 18 21 26 31 35 40 44 46 49 49 49 48 48 48 46 43 41 42 43 43 43 43 43 43 44 43 43 43 43 44 45 46 47 47 47 48 45 42 43 45 43 40 39 41 42 41 41 41 40 39 38 37 37 36 35 32 30
43 45 47 50 53 55 57 59 59 61 61 60 60 58 54 52 50 49 49 48 45 41 36 31 25 20 17 15 12 11 12 15 17 21 25 29 34 38 42 46 49 50 51 50 50 49 45 41 39 41 44 47 47 46 46 46 46 47 46 47 48 48 49 49 49 49 47 44 43 44 44 43 40 38 41 43 42 41 42 41 39 39 38 37 36 35 33 30
41 43 45 47 50 53 55 57 59 60 61 62 61 60 58 56 54 52 50 50 49 46 43 39 32 27 25 23 18 15 14 13 15 17 20 24 28 31 35 39 44 48 51 52 53 53 50 45 42 40 41 45 47 47 48 48 48 47 46 47 46 45 46 46 47 47 45 42 43 44 44 42 40 38 41 43 42 41 41 41 41 41 38 38 37 35 34 31
40 42 43 46 48 51 53 55 57 58 60 61 61 61 60 59 58 56 53 52 50 49 48 45 39 34 32 31 26 21 18 14 13 14 16 20 23 26 29 32 36 42 47 50 52 53 53 51 50 49 47 45 44 44 44 45 45 44 45 47 45 44 45 46 46 46 44 43 43 44 43 40 40 41 42 43 43 43 43 41 42 41 39 39 38 36 35 32
39 40 42 44 46 49 51 53 54 56 58 60 60 61 61 61 61 59 56 54 52 50 50 48 45 40 37 36 33 28 25 21 16 14 15 17 20 21 24 27 31 36 40 44 48 50 52 53 54 56 54 51 48 46 45 44 44 44 46 48 47 47 49 48 48 47 46 44 44 44 42 39 41 44 44 45 45 45 44 42 41 40 39 40 40 37 36 33
37 38 41 43 45 47 49 51 53 54 56 58 59 60 61 62 62 60 59 57 54 52 50 48 46 44 42 40 39 36 32 28 22 20 19 18 18 19 20 23 27 32 34 38 43 46 49 52 54 56 56 56 54 53 51 50 49 48 48 49 50 51 53 51 49 49 48 45 43 44 43 42 43 45 45 47 47 46 45 43 41 40 40 40 40 39 37 34
36 37 39 41 43 45 47 50 51 53 55 56 57 58 60 62 62 61 60 58 56 54 51 49 47 46 44 43 43 41 38 34 29 26 24 20 18 19 19 20 24 28 31 34 38 42 45 48 52 54 56 58 57 57 57 56 56 55 53 53 53 54 55 53 52 52 51 47 45 47 47 45 47 47 47 49 48 46 47 46 43 41 41 41 41 41 39 36
34 36 38 40 42 44 46 48 50 52 54 55 55 57 60 61 62 62 61 60 58 56 54 52 50 47 45 44 43 42 41 39 36 33 30 25 21 21 21 21 23 25 28 30 33 37 40 43 48 50 52 55 56 56 58 58 58 58 56 56 56 56 56 56 54 54 54 50 49 50 49 48 50 50 49 50 50 49 50 48 44 43 43 43 42 41 40 38
33 35 37 38 40 42 45 47 49 51 52 53 54 57 58 59 61 61 62 61 60 59 57 55 53 51 49 46 44 43 42 41 40 38 36 32 27 24 23 23 23 24 26 29 31 34 36 39 44 47 48 52 53 53 56 57 57 57 57 57 56 56 57 57 55 55 54 51 50 51 50 50 52 50 48 51 52 51 52 49 46 45 45 44 43 41 40 39
32 34 35 37 39 41 43 45 47 48 50 51 54 55 57 58 59 60 62 62 62 62 60 58 56 54 52 50 48 46 45 43 42 41 40 38 33 29 27 26 24 24 24 26 29 32 33 35 39 43 45 48 50 51 54 55 56 56 56 56 56 55 56 57 56 55 55 53 52 52 51 50 52 51 49 52 53 52 52 51 49 48 46 45 44 42 40 38
31 33 35 37 39 41 43 44 46 47 48 50 52 54 55 56 58 59 61 62 63 63 62 62 60 58 56 54 52 50 49 47 45 44 43 41 39 35 32 31 29 26 25 25 26 28 31 32 34 38 41 43 46 50 52 54 55 55 56 56 56 56 57 57 55 55 54 53 53 53 51 52 54 53 52 54 55 54 55 55 52 51 49 46 45 43 41 39
30 32 34 36 38 40 42 44 45 46 47 49 51 52 53 55 56 58 59 60 62 63 63 63 63 62 60 58 55 53 52 50 49 49 48 46 45 42 38 37 34 30 28 27 25 26 28 29 31 34 37 39 42 46 48 49 52 54 56 56 56 57 59 58 56 55 54 54 54 54 53 53 56 57 56 57 57 56 58 58 55 53 51 48 46 44 43 40
29 31 33 36 38 40 42 43 44 45 46 47 49 51 52 53 55 56 57 59 60 61 63 64 64 64 63 62 60 57 55 53 51 51 51 50 50 48 46 44 42 37 33 30 28 27 26 27 29 31 34 36 39 42 43 44 47 50 52 54 57 58 58 59 57 56 58 58 57 57 56 56 58 59 59 59 59 58 58 59 57 54 51 48 47 46 44 42
29 31 33 36 38 40 42 43 44 45 45 47 48 49 51 52 53 55 56 57 59 60 61 62 63 64 64 64 63 62 59 57 55 53 52 52 52 52 51 51 49 46 41 36 32 29 27 27 27 29 31 34 37 38 39 41 43 45 46 49 55 57 58 61 60 58 60 60 60 60 59 59 60 60 59 58 58 57 56 56 55 52 50 48 48 48 45 42
29 31 33 35 37 40 41 42 44 45 46 47 48 49 50 51 52 53 55 56 57 58 60 61 62 64 65 65 66 65 64 62 59 56 53 52 53 53 54 54 54 52 50 44 38 33 30 28 27 27 29 32 35 36 37 40 40 41 43 45 48 52 56 59 59 60 62 61 61 61 59 59 59 57 55 54 53 52 50 51 51 50 49 48 48 48 45 43
30 32 33 35 37 39 41 42 43 45 46 47 48 49 50 51 51 52 54 55 56 57 58 60 61 62 64 65 66 67 67 66 64 61 58 55 53 53 54 55 55 56 55 52 46 40 35 32 29 28 28 29 32 34 36 39 39 40 42 43 44 46 49 53 56 59 60 60 61 60 57 56 55 51 50 49 47 47 46 47 49 49 48 48 48 47 46 45
30 32 34 36 38 40 41 42 43 44 46 47 48 49 50 51 51 52 53 54 55 57 58 59 60 61 62 64 66 67 68 68 67 66 64 61 57 55 54 54 55 56 56 55 52 47 41 37 32 30 29 28 30 31 34 37 38 39 41 41 41 41 43 46 50 53 57 58 57 56 54 52 50 47 47 47 45 46 47 47 49 49 49 48 48 47 47 47
31 32 34 36 38 40 42 43 44 45 46 47 48 49 50 51 51 52 53 54 55 56 57 58 59 60 61 63 65 67 69 70 70 69 67 66 63 59 57 55 55 56 57 57 55 50 45 41 35 32 31 30 29 30 31 34 36 38 39 38 40 41 41 44 46 49 52 52 51 53 52 49 48 47 47 47 46 47 49 49 50 50 50 49 48 48 48 48
31 32 34 36 38 40 42 43 45 46 47 47 48 49 50 50 52 52 53 53 54 56 57 58 59 60 61 62 64 66 68 70 71 71 69 68 66 64 61 59 58 57 58 58 56 52 48 43 38 33 32 31 30 30 30 31 34 36 37 37 39 41 42 43 46 48 49 46 47 50 50 47 47 48 48 49 48 47 49 51 51 51 50 50 49 48 48 48
31 33 34 36 38 40 42 44 46 47 47 48 49 50 50 51 52 52 53 54 54 56 57 58 60 61 62 63 64 66 68 70 71 72 71 71 69 67 65 64 63 61 60 60 57 53 48 44 38 34 32 30 29 29 29 29 30 32 34 35 37 39 40 42 44 46 47 45 45 48 48 47 48 48 49 50 50 49 50 50 50 50 49 50 50 50 50 49
31 33 35 36 38 40 42 44 46 47 48 49 50 50 51 51 52 53 54 54 55 56 57 58 60 61 62 64 65 66 67 69 71 72 73 73 72 70 68 67 66 65 64 62 59 54 49 44 39 34 32 30 28 28 29 28 28 30 32 33 35 35 36 37 40 42 43 43 44 45 45 46 47 48 49 50 50 50 51 52 50 49 48 50 51 52 53 52
32 33 35 37 38 40 42 43 45 47 48 49 50 50 51 51 52 53 54 55 56 56 57 59 60 61 63 64 65 66 68 69 70 72 74 74 74 73 71 69 69 69 68 65 61 56 50 44 39 34 32 31 28 27 28 28 27 28 29 31 32 32 31 32 35 38 39 40 42 42 43 44 47 48 49 50 50 50 52 53 51 48 47 48 49 52 54 54
32 33 35 36 38 40 41 42 44 46 48 49 50 50 51 52 53 54 55 56 57 58 58 59 60 62 63 64 65 67 68 69 70 72 74 76 76 75 73 72 71 70 70 68 65 59 52 45 40 35 31 30 28 26 26 27 26 26 27 29 31 30 30 30 32 34 36 37 40 41 42 44 47 48 49 50 50 50 53 54 52 49 48 47 48 49 51 51
Wind_Direction
292 292 291 290 289 288 287 286 284 282 280 278 276 273 271 270 268 266 264 263 262 261 260 260 259 258 258 258 258 258 258 258 260 261 262 263 264 264 263 262 260 258 258 257 257 256 256 256 255 255 255 255 255 254 253 252 252 252 253 253 253 254 256 257 258 259 259 258 264 266 263 262 264 269 270 266 266 266 261 260 264 258 254 254 250 244 242 241
294 293 292 291 290 289 288 287 286 284 282 280 277 275 272 269 267 265 263 261 260 259 258 257 257 257 256 255 256 256 256 256 257 258 259 260 261 262 262 260 258 257 256 256 255 254 254 253 252 252 251 252 251 251 251 250 251 252 252 253 255 257 257 259 261 261 263 261 263 268 269 269 268 272 275 275 275 273 271 271 272 266 260 259 253 248 244 237
297 296 294 293 292 291 289 288 287 286 284 282 279 276 273 270 267 265 262 259 257 256 255 254 254 254 254 253 253 254 255 255 255 256 257 258 259 259 260 259 257 255 254 253 252 251 250 249 249 248 249 248 248 249 249 249 250 251 252 254 256 257 257 259 262 261 263 263 262 266 269 271 271 272 274 276 278 276 277 278 275 271 268 265 259 261 255 240
301 301 299 297 296 294 292 290 288 287 285 283 280 278 274 271 268 264 262 259 256 254 253 252 252 252 252 251 251 252 253 253 254 254 255 255 256 257 257 256 255 253 252 250 249 248 246 246 246 246 246 246 247 248 248 249 250 251 254 255 255 255 258 260 262 262 263 264 263 264 266 269 271 272 272 273 276 277 276 275 274 274 271 268 264 267 262 247
307 306 305 303 300 298 295 292 290 288 286 283 281 279 275 272 269 265 261 258 256 253 250 249 249 249 249 249 248 249 250 251 252 253 253 253 254 254 254 254 252 251 249 248 247 246 245 244 244 243 244 244 245 247 248 250 251 253 255 254 253 256 259 259 261 263 263 264 264 264 265 266 268 270 272 272 274 275 274 268 270 273 272 271 267 267 266 259
313 312 310 308 305 302 298 295 292 289 286 284 281 279 276 273 269 265 261 258 255 252 250 248 247 247 247 246 246 246 247 249 250 250 251 251 251 251 251 252 250 249 247 246 245 244 244 242 241 241 242 243 245 246 248 250 252 254 255 253 253 257 259 258 261 263 264 266 265 265 266 266 268 271 273 275 275 273 274 268 266 270 272 274 270 268 270 267
317 316 314 312 309 305 301 297 293 290 287 284 282 279 276 273 269 266 262 258 254 252 249 247 245 245 244 244 244 244 245 247 247 247 249 249 249 249 249 249 248 247 245 244 243 242 241 240 240 240 241 243 245 247 249 252 253 254 254 253 253 257 258 259 263 266 267 268 268 268 269 270 271 273 275 277 277 275 273 271 268 269 271 273 272 270 269 266
318 317 315 313 311 307 303 299 295 291 288 286 283 281 277 273 269 266 262 258 254 251 249 247 244 243 242 242 242 242 243 245 245 245 247 247 247 247 247 248 247 246 244 243 242 240 240 239 239 240 241 243 245 247 250 252 254 254 253 252 253 256 259 261 265 268 269 270 271 272 273 274 275 276 278 278 278 276 274 273 273 273 273 273 273 272 269 266
321 317 315 313 311 308 305 301 296 293 290 288 285 282 278 273 268 265 262 258 254 250 248 246 245 242 241 241 240 240 241 243 243 243 245 245 246 245 246 246 246 245 244 242 241 240 240 240 241 241 242 243 246 248 250 253 254 254 252 252 254 256 259 262 265 268 270 272 273 275 276 277 278 278 279 279 278 277 275 274 275 278 278 276 275 273 271 270
327 322 318 314 311 309 306 302 298 295 292 290 287 284 279 274 268 264 260 257 253 250 247 245 244 242 240 239 238 238 240 241 241 242 243 244 244 244 244 245 245 244 243 242 241 241 240 241 241 242 244 245 247 249 252 254 254 255 253 252 254 256 260 263 266 269 271 274 275 277 278 278 280 280 280 280 279 277 276 278 280 281 282 280 278 276 276 276
336 330 324 318 314 310 307 304 301 297 294 292 289 285 280 274 268 263 259 256 252 248 245 244 243 242 240 238 237 237 238 239 240 240 241 242 243 243 243 243 244 244 244 244 243 242 241 242 243 244 247 247 249 252 254 255 254 255 253 252 253 256 260 263 267 270 273 276 277 278 279 279 281 282 281 281 280 279 279 282 284 284 285 283 282 279 279 278
345 339 332 325 319 314 310 307 304 300 297 295 291 287 281 275 269 264 259 255 252 248 244 242 241 240 239 237 236 236 237 238 239 239 239 241 242 242 243 243 243 244 244 245 244 244 243 244 245 247 248 249 252 255 255 255 254 254 253 251 254 257 260 265 269 273 275 278 279 279 279 281 283 284 282 281 282 283 284 286 286 286 286 285 284 282 280 280
352 348 342 335 327 321 315 311 308 304 302 298 294 289 284 279 273 267 260 255 252 248 244 241 239 238 237 236 235 236 236 236 238 238 239 240 241 242 243 243 243 243 244 245 245 246 246 246 248 249 250 253 256 255 254 255 255 253 251 251 255 258 262 267 272 275 278 280 281 281 281 282 285 287 284 281 283 285 286 289 287 287 288 287 285 284 283 283
358 355 351 346 338 330 323 318 314 310 307 303 298 293 288 283 277 270 262 256 252 248 244 240 238 236 235 234 234 235 235 236 237 238 238 239 240 241 242 242 243 244 244 244 245 246 247 249 250 251 253 256 255 254 256 256 255 252 251 253 256 260 264 270 275 277 280 283 284 283 283 282 283 288 289 286 285 286 287 289 289 288 289 289 287 287 286 287
1 359 358 354 348 340 332 326 322 319 315 310 304 299 294 288 281 273 264 257 251 247 243 239 236 235 233 232 233 234 234 235 237 238 238 238 239 241 241 243 243 244 244 245 245 246 247 249 250 252 254 254 253 255 257 256 255 253 252 256 259 262 267 271 275 278 282 285 286 286 285 283 282 284 289 290 289 288 289 289 289 290 290 290 290 291 292 290
4 3 2 1 357 350 343 337 333 330 326 320 314 309 302 295 286 277 267 259 251 246 242 239 235 233 231 230 232 232 233 235 237 238 238 238 239 240 241 243 243 244 245 246 246 247 248 249 250 252 252 253 254 255 255 255 255 255 255 258 261 265 269 270 272 279 284 285 286 287 286 285 284 281 283 289 289 288 291 291 290 292 293 293 293 296 297 294
7 7 6 6 5 1 354 348 344 341 337 333 328 321 312 304 293 282 272 261 252 245 241 238 234 231 230 230 231 230 231 234 236 237 238 238 239 240 241 242 244 245 246 246 247 248 248 249 250 251 253 254 255 255 256 256 256 257 259 261 263 267 271 272 270 277 284 284 284 286 287 288 289 285 282 287 288 289 293 293 294 295 295 296 298 301 301 299
10 10 11 12 12 9 5 359 355 352 349 347 342 333 324 315 303 291 279 267 255 245 240 237 233 230 229 229 229 229 229 232 235 237 238 239 239 240 241 242 244 245 246 248 249 249 250 251 252 253 254 255 256 257 257 258 258 260 261 263 265 268 272 273 272 274 279 281 283 286 287 289 290 288 285 285 288 290 293 295 296 298 298 299 302 303 303 302
14 15 15 16 17 16 13 8 4 1 0 360 354 347 341 332 320 307 289 271 257 246 239 235 232 229 228 228 228 228 229 230 233 236 238 239 240 241 242 243 244 245 247 248 249 251 252 253 254 255 256 257 258 259 259 260 262 263 263 265 268 271 272 273 276 277 275 277 282 285 286 287 288 288 287 286 288 291 295 296 297 298 299 301 303 304 305 303
18 19 20 21 21 21 20 18 14 10 8 9 5 359 354 346 337 325 307 286 264 249 239 235 231 228 227 227 227 227 228 229 230 234 237 240 241 243 244 244 245 246 247 249 250 252 254 254 256 257 258 259 260 261 262 263 264 265 266 268 270 272 273 273 276 278 276 278 282 284 284 285 286 287 288 289 290 293 296 297 297 298 299 301 303 305 306 305
21 22 23 24 25 26 27 26 23 19 15 15 15 10 3 355 347 336 322 306 281 256 242 236 232 230 228 228 227 226 227 229 230 232 235 239 241 243 246 247 248 248 248 249 251 252 254 255 256 258 259 261 263 264 264 265 265 267 268 270 271 272 273 276 277 278 279 280 282 282 282 282 284 286 288 290 291 294 297 297 296 297 298 300 304 306 307 305
25 25 26 27 28 29 31 30 28 27 23 20 21 19 14 8 2 353 339 319 293 268 249 240 235 233 231 229 228 227 226 229 230 230 233 236 240 243 246 248 250 251 252 252 252 253 254 255 256 258 260 263 266 265 264 266 267 267 269 270 271 272 273 275 278 280 282 280 279 280 280 281 283 285 289 291 292 294 296 295 294 296 299 301 305 307 306 304
27 28 28 29 29 31 32 32 32 31 29 27 25 23 22 21 19 15 5 346 319 294 270 251 240 235 233 230 229 228 227 229 229 229 231 234 237 241 245 247 249 252 254 255 256 256 256 256 257 258 260 262 264 263 264 266 266 267 268 269 270 271 273 275 277 281 284 279 275 277 280 282 283 286 289 290 292 294 293 291 292 296 300 303 306 307 306 306
29 30 31 30 31 32 32 33 33 33 34 32 30 27 26 28 28 27 24 13 350 326 298 268 249 240 236 233 231 229 229 229 230 230 230 231 231 234 240 244 247 251 254 256 258 259 259 259 260 260 261 261 260 262 264 265 265 266 268 269 270 271 274 277 278 280 281 278 276 279 283 283 284 287 288 288 291 293 291 290 293 297 300 303 306 306 307 308
29 32 33 33 33 33 33 33 34 35 36 35 32 31 30 29 29 29 29 21 5 350 327 299 268 249 241 237 234 233 231 231 231 230 231 232 230 230 232 236 240 245 249 253 257 259 260 261 261 262 264 262 260 262 264 264 266 267 269 270 271 274 277 277 277 276 277 277 278 280 283 283 285 289 288 288 290 289 288 290 293 296 299 302 304 306 309 309
29 31 33 35 35 35 34 34 34 36 37 35 34 36 36 33 29 26 25 23 17 9 357 335 298 267 251 244 239 236 234 233 232 231 231 232 233 234 233 233 236 239 243 248 252 255 258 259 260 260 261 261 262 263 264 265 267 268 270 271 273 276 277 275 274 275 276 277 278 281 283 284 287 289 288 288 289 288 288 290 293 296 298 302 303 305 309 306
29 30 33 35 36 36 36 36 36 36 37 36 36 38 39 35 32 29 26 27 24 20 17 6 335 303 271 254 247 241 237 235 234 233 232 232 235 237 238 238 238 238 239 243 246 250 255 256 257 258 258 260 263 263 263 265 267 268 268 270 273 274 274 273 272 273 275 276 280 284 285 285 287 287 286 287 288 287 289 290 293 296 298 301 302 304 307 304
28 29 31 34 36 37 37 37 37 37 38 38 38 39 38 35 35 35 34 32 27 23 21 16 6 345 305 276 263 252 245 240 238 236 235 234 235 238 241 243 244 243 241 241 243 246 249 251 252 253 256 258 259 260 262 263 264 266 267 268 270 271 270 270 270 272 274 276 282 285 283 284 285 285 285 286 286 286 288 290 291 294 297 300 300 301 304 304
27 28 29 32 34 37 38 38 39 39 39 39 39 40 39 37 38 38 37 36 32 26 21 18 17 8 343 306 281 267 257 249 245 242 240 239 238 238 239 242 245 246 246 245 247 247 248 250 251 250 252 254 256 259 260 261 262 263 266 267 266 266 267 267 269 272 274 277 282 281 280 281 283 283 285 284 284 285 287 289 291 294 297 298 299 300 302 304
27 27 28 30 32 34 37 38 38 39 39 39 39 40 40 39 40 41 39 38 36 32 28 23 17 10 2 342 311 289 275 265 256 251 248 245 244 242 241 241 242 245 246 247 249 250 251 254 256 255 252 253 255 257 258 259 260 260 262 264 264 265 266 267 269 271 274 278 279 276 276 279 281 283 283 282 283 285 285 287 291 294 294 296 297 299 301 304
27 27 27 29 30 32 35 36 37 38 38 39 39 39 40 39 39 41 41 40 39 37 35 32 25 20 14 4 351 332 307 287 274 264 258 254 251 248 246 244 243 243 244 246 248 250 250 251 256 257 255 254 254 256 258 259 261 262 263 264 267 268 268 269 270 271 274 276 275 273 274 277 281 283 281 280 282 282 283 286 289 291 293 293 294 297 299 302
27 27 27 28 29 31 33 34 35 36 37 37 37 37 38 38 39 40 40 40 40 39 39 38 36 32 24 14 5 351 332 310 295 284 272 265 260 256 253 250 247 246 245 245 247 249 250 249 251 254 256 257 258 259 261 262 263 265 266 266 266 266 266 267 269 271 273 273 272 272 274 278 282 281 278 278 279 279 281 285 288 290 291 291 291 294 298 300
27 27 27 28 29 30 31 33 34 35 36 36 35 35 36 36 37 39 39 40 40 40 41 41 39 36 29 22 15 6 355 340 318 302 288 277 271 266 261 257 253 249 247 246 247 248 250 250 250 253 256 259 261 261 261 261 261 261 262 263 263 263 264 266 268 270 272 272 272 273 275 279 279 276 275 276 276 276 278 282 286 288 289 288 290 292 295 299
27 27 27 28 29 29 30 32 33 34 34 34 34 34 34 34 34 35 36 37 38 39 40 41 40 38 34 30 26 21 12 3 348 327 311 297 286 277 270 265 259 255 251 249 248 248 249 250 251 253 256 257 257 258 259 259 260 259 259 260 262 263 264 266 269 271 272 273 273 274 274 274 272 273 275 275 274 275 278 279 282 285 286 286 289 290 292 295
26 26 27 28 28 29 29 30 31 32 33 33 32 32 33 33 33 33 33 34 35 37 38 39 40 39 38 35 32 29 23 16 7 351 338 324 306 294 283 273 266 262 258 254 252 250 249 250 251 253 255 256 256 256 258 259 259 260 259 260 261 261 264 267 268 270 272 272 272 270 270 270 271 272 273 273 274 276 276 277 279 282 283 283 286 288 289 290
24 25 26 27 28 28 29 29 30 31 32 32 31 31 32 32 32 32 31 32 32 34 34 35 37 38 38 37 35 33 30 25 18 6 358 346 326 313 302 288 277 271 266 261 257 255 252 252 252 252 254 256 257 256 258 259 260 261 260 260 260 261 264 265 265 267 268 268 267 266 268 270 270 271 271 272 273 273 273 275 279 281 280 281 283 286 287 288
24 25 26 26 27 28 29 29 29 29 31 31 30 31 31 31 31 30 30 30 30 31 31 32 33 34 35 36 35 34 33 30 26 20 13 2 347 334 324 309 296 286 277 271 266 261 258 255 255 255 254 256 257 257 258 259 259 261 261 260 261 262 264 264 264 265 265 265 264 265 267 269 269 270 271 270 270 270 271 275 279 280 280 281 281 283 285 286
23 25 25 26 27 28 29 29 29 29 29 29 29 31 31 30 29 29 28 28 28 28 28 29 30 30 30 31 32 32 32 31 30 27 22 16 6 350 336 323 311 302 291 282 276 270 265 261 259 258 257 256 257 257 258 258 258 260 261 261 262 262 263 264 264 264 264 264 263 265 266 266 267 269 268 268 269 270 272 275 277 278 279 280 280 281 282 284
23 24 25 25 27 28 30 30 29 29 28 28 29 30 30 30 29 28 27 27 26 26 26 26 26 27 27 27 28 28 28 28 28 28 27 24 17 5 352 343 330 318 306 294 286 280 274 268 264 262 260 259 258 257 257 258 258 258 259 260 261 261 262 263 264 264 264 265 264 265 265 265 265 266 265 266 268 270 272 273 275 277 279 278 278 279 280 280
23 24 24 25 26 27 28 29 29 29 27 26 27 28 28 29 28 28 27 26 25 24 24 24 24 24 24 25 25 25 25 24 24 24 24 23 21 17 9 1 349 335 323 311 300 290 283 276 271 268 266 263 261 259 257 257 258 258 258 259 259 259 259 259 261 263 264 264 264 263 263 264 264 265 264 265 267 270 272 273 274 277 278 276 275 276 277 278
23 23 23 24 25 25 26 27 27 27 26 25 26 26 26 26 26 26 25 25 24 23 22 21 21 21 21 22 22 22 22 22 22 21 20 19 19 19 15 10 3 352 339 327 315 303 294 286 278 274 270 266 264 262 260 259 258 257 256 257 258 259 259 259 258 259 259 260 261 261 261 261 264 265 266 267 268 270 272 275 276 276 276 275 272 272 273 275
22 21 21 21 22 24 24 25 25 25 24 24 24 24 24 24 24 24 24 23 23 22 21 20 19 19 19 19 19 20 20 20 20 19 18 17 16 16 14 12 9 3 354 343 330 317 306 296 288 280 275 271 267 267 266 263 260 259 257 255 255 256 258 259 258 257 257 256 257 259 259 260 263 265 267 268 269 271 272 274 276 276 275 273 271 270 271 274
20 19 19 19 20 21 21 21 22 22 23 23 22 22 22 22 22 22 22 21 21 20 20 19 18 17 17 16 16 16 17 17 17 17 17 16 15 14 13 11 9 7 2 354 343 330 318 306 296 287 281 277 272 270 269 266 263 262 261 257 254 253 253 255 257 257 258 258 258 258 260 261 263 265 267 269 270 270 271 272 273 273 272 270 269 270 271 273
19 18 17 17 17 18 18 18 18 19 19 20 20 20 19 20 20 19 19 19 19 19 18 17 17 16 15 15 14 13 13 14 15 15 15 14 13 12 12 10 9 7 4 359 352 343 330 316 306 296 287 281 277 274 271 268 265 264 262 260 257 255 253 253 255 256 257 259 259 259 260 262 263 266 268 269 270 270 269 269 270 269 268 267 267 269 270 271
16 16 15 15 15 15 16 15 15 15 16 17 18 17 17 17 18 17 17 16 16 16 16 15 15 14 14 13 13 12 11 11 11 12 12 12 11 11 10 9 7 6 3 360 356 350 339 328 317 306 295 286 281 278 274 271 270 266 263 262 259 257 254 254 253 253 254 256 257 259 260 261 262 265 265 265 266 267 267 266 267 266 265 266 267 268 269 268
12 12 12 12 12 12 13 13 13 13 13 14 14 15 15 14 15 15 15 14 14 14 14 14 13 12 12 11 11 11 10 9 8 9 9 9 9 8 8 7 6 4 3 360 356 352 345 336 326 315 305 296 288 282 278 276 275 271 268 266 263 260 258 256 254 253 252 252 254 257 258 259 260 261 262 261 260 261 262 263 264 265 265 265 266 267 267 267
8 8 8 8 8 8 9 9 10 10 10 10 11 12 12 12 12 12 12 12 12 12 12 12 11 11 10 9 9 9 9 8 7 7 6 6 6 6 5 4 4 3 1 359 356 352 347 340 333 323 312 304 297 288 282 279 276 274 272 269 265 263 261 259 257 256 254 252 252 254 254 256 257 258 260 261 259 257 258 260 261 263 264 264 264 266 267 268
5 4 4 4 4 3 4 5 5 6 7 7 7 8 9 9 9 10 10 10 9 9 9 9 9 9 8 8 8 7 7 7 6 5 4 4 3 3 3 3 2 1 360 358 355 352 348 341 336 329 318 308 301 293 285 280 277 274 272 269 266 264 261 259 257 257 257 255 251 251 252 253 255 256 258 260 261 260 259 260 260 261 263 265 265 265 266 268
1 1 1 1 360 360 0 0 1 2 2 3 4 4 5 6 6 7 7 7 7 7 7 7 7 7 7 6 6 6 6 5 5 4 3 2 1 2 2 1 0 359 358 356 353 351 347 342 336 331 321 311 303 296 289 282 278 275 272 269 265 263 261 259 257 257 258 256 251 249 251 251 252 254 256 259 262 263 263 263 263 263 263 264 265 266 266 267
357 358 357 357 357 357 357 357 357 358 358 359 360 0 1 2 3 4 5 5 5 5 5 5 5 5 5 5 5 5 4 4 4 3 3 2 1 0 0 0 359 358 356 354 352 349 346 341 336 331 323 314 307 298 292 286 281 277 275 271 267 265 262 259 257 256 257 257 253 249 249 250 251 252 254 257 260 262 265 266 265 265 264 263 264 266 267 267
353 353 354 354 354 354 355 354 354 354 355 356 357 357 357 359 0 1 2 3 3 3 2 2 2 2 2 2 3 3 3 3 2 2 2 1 0 359 359 359 358 356 354 352 350 347 344 340 336 331 323 316 310 301 294 289 283 278 277 274 269 265 260 256 253 252 253 255 252 248 247 248 250 252 253 255 257 260 263 265 266 266 266 265 265 266 267 268
350 351 351 351 351 351 352 352 351 351 353 354 355 354 355 356 357 358 359 360 1 1 1 0 360 360 360 0 1 1 1 1 1 1 1 1 359 359 359 359 357 355 353 351 348 345 342 339 334 331 325 318 313 305 296 290 285 280 277 275 271 264 259 252 248 246 247 248 247 245 245 246 247 250 253 254 255 257 260 263 266 266 266 266 266 266 267 268
Height
10683 10681 10678 10676 10673 10671 10668 10666 10664 10663 10662 10661 10660 10660 10659 10659 10660 10660 10660 10661 10662 10663 10664 10664 10665 10665 10666 10667 10668 10668 10669 10670 10670 10670 10671 10671 10672 10672 10673 10673 10673 10674 10674 10675 10675 10676 10676 10677 10677 10677 10678 10678 10679 10680 10680 10681 10682 10682 10683 10683 10684 10685 10686 10686 10687 10689 10690 10691 10690 10690 10693 10695 10696 10696 10696 10698 10699 10699 10701 10701 10700 10700 10699 10700 10701 10703 10704 10701
10679 10676 10674 10671 10669 10666 10663 10661 10659 10657 10655 10655 10654 10653 10653 10653 10653 10654 10654 10655 10656 10657 10658 10659 10660 10660 10662 10663 10664 10665 10666 10666 10667 10667 10667 10668 10669 10669 10670 10670 10671 10671 10671 10672 10672 10673 10674 10674 10674 10675 10675 10676 10677 10677 10678 10679 10680 10680 10681 10682 10682 10683 10684 10684 10685 10687 10687 10689 10689 10689 10690 10692 10693 10694 10694 10695 10695 10696 10697 10697 10696 10696 10696 10697 10699 10700 10698 10696
10674 10672 10670 10667 10665 10662 10659 10656 10654 10651 10650 10648 10648 10647 10647 10647 10647 10647 10648 10649 10650 10651 10653 10654 10655 10656 10657 10658 10660 10661 10662 10663 10663 10664 10664 10665 10666 10667 10667 10667 10668 10668 10669 10669 10670 10670 10671 10671 10672 10672 10673 10674 10675 10675 10677 10677 10678 10679 10679 10680 10680 10681 10682 10683 10684 10685 10685 10686 10687 10688 10688 10690 10691 10692 10693 10692 10692 10693 10694 10695 10692 10692 10693 10693 10697 10696 10692 10692
10670 10668 10665 10663 10660 10658 10655 10652 10649 10647 10644 10643 10642 10641 10641 10641 10641 10641 10642 10643 10644 10645 10647 10648 10649 10651 10653 10654 10656 10657 10658 10659 10659 10660 10662 10662 10663 10664 10664 10665 10665 10666 10666 10667 10667 10668 10669 10669 10670 10670 10671 10672 10673 10674 10675 10675 10676 10677 10678 10679 10679 10679 10680 10681 10682 10682 10683 10684 10685 10686 10687 10688 10689 10690 10690 10690 10690 10690 10692 10692 10688 10688 10689 10690 10694 10691 10687 10690
10667 10663 10660 10658 10655 10653 10650 10648 10645 10642 10640 10638 10636 10636 10635 10635 10635 10635 10636 10637 10638 10639 10641 10642 10644 10646 10648 10650 10652 10653 10655 10655 10656 10658 10658 10659 10660 10661 10661 10662 10662 10663 10664 10664 10665 10666 10666 10667 10667 10668 10669 10670 10671 10672 10673 10674 10675 10675 10676 10677 10677 10677 10679 10680 10679 10680 10681 10682 10683 10684 10685 10686 10687 10687 10688 10688 10688 10688 10688 10689 10687 10685 10686 10687 10689 10687 10686 10687
10663 10659 10655 10652 10650 10648 10645 10643 10640 10637 10635 10633 10631 10630 10630 10630 10629 10630 10630 10631 10633 10634 10635 10636 10638 10641 10643 10646 10647 10650 10651 10651 10652 10654 10655 10656 10657 10658 10658 10658 10659 10660 10661 10662 10663 10663 10664 10664 10665 10666 10667 10668 10669 10670 10671 10672 10673 10673 10674 10675 10675 10675 10677 10677 10677 10678 10679 10679 10680 10681 10683 10684 10684 10685 10685 10685 10686 10685 10685 10685 10685 10682 10683 10684 10684 10684 10685 10684
10660 10655 10651 10647 10644 10642 10640 10637 10635 10632 10630 10628 10626 10625 10625 10624 10624 10624 10624 10626 10627 10628 10629 10631 10632 10635 10638 10641 10643 10646 10647 10647 10649 10650 10651 10653 10654 10655 10655 10655 10657 10658 10658 10659 10660 10661 10661 10662 10663 10664 10665 10666 10667 10668 10669 10670 10671 10671 10672 10672 10673 10673 10675 10675 10675 10676 10676 10677 10678 10679 10680 10681 10682 10682 10682 10683 10682 10682 10681 10681 10681 10680 10681 10681 10679 10681 10682 10680
10656 10652 10647 10643 10639 10636 10634 10632 10629 10627 10624 10623 10621 10620 10619 10619 10618 10619 10619 10620 10621 10622 10624 10625 10627 10630 10633 10636 10639 10642 10643 10642 10645 10647 10648 10650 10651 10652 10652 10652 10654 10655 10656 10657 10657 10658 10659 10660 10661 10662 10663 10664 10665 10666 10667 10667 10668 10669 10670 10670 10670 10671 10672 10673 10673 10673 10673 10674 10675 10676 10678 10678 10679 10679 10680 10679 10679 10679 10678 10678 10677 10676 10678 10677 10676 10677 10677 10675
10653 10648 10644 10639 10634 10631 10628 10626 10624 10621 10619 10617 10616 10615 10614 10613 10613 10613 10613 10614 10615 10617 10618 10619 10621 10624 10628 10631 10635 10638 10638 10639 10642 10643 10644 10646 10648 10649 10649 10650 10651 10652 10653 10654 10655 10655 10657 10657 10658 10659 10660 10661 10663 10664 10664 10665 10666 10667 10667 10667 10668 10669 10669 10670 10670 10670 10670 10671 10672 10673 10674 10675 10675 10676 10677 10676 10675 10675 10674 10674 10673 10672 10674 10673 10672 10673 10672 10670
10649 10644 10639 10635 10630 10626 10623 10620 10618 10616 10614 10612 10611 10610 10608 10608 10607 10607 10608 10608 10609 10611 10612 10614 10616 10619 10623 10626 10630 10633 10633 10635 10638 10639 10641 10643 10644 10646 10646 10647 10648 10649 10650 10651 10652 10653 10654 10655 10656 10657 10658 10660 10660 10661 10662 10663 10664 10664 10665 10665 10665 10666 10667 10667 10667 10667 10668 10668 10669 10670 10671 10672 10671 10672 10673 10672 10671 10672 10671 10671 10670 10669 10669 10668 10668 10668 10667 10666
10646 10641 10636 10630 10626 10622 10618 10615 10613 10611 10609 10607 10605 10604 10603 10602 10601 10602 10602 10602 10603 10604 10606 10608 10610 10614 10618 10621 10626 10628 10628 10631 10633 10635 10638 10639 10641 10642 10643 10644 10645 10646 10647 10648 10650 10651 10652 10652 10653 10654 10656 10657 10657 10658 10659 10660 10660 10661 10662 10663 10663 10664 10664 10664 10664 10664 10665 10665 10665 10667 10667 10668 10668 10668 10669 10669 10668 10668 10668 10668 10666 10665 10665 10664 10663 10663 10663 10662
10643 10638 10632 10627 10621 10617 10614 10611 10608 10606 10604 10602 10600 10598 10597 10596 10596 10596 10596 10596 10597 10598 10600 10602 10604 10609 10612 10616 10621 10622 10624 10627 10628 10631 10634 10635 10638 10639 10640 10642 10642 10643 10644 10646 10647 10648 10649 10650 10650 10652 10653 10653 10654 10656 10656 10656 10657 10658 10659 10660 10660 10661 10661 10661 10661 10661 10662 10662 10662 10663 10664 10664 10665 10664 10664 10666 10665 10664 10664 10664 10663 10661 10661 10660 10658 10658 10659 10657
10641 10635 10629 10623 10618 10613 10610 10607 10604 10601 10599 10597 10595 10592 10591 10590 10590 10590 10590 10591 10591 10592 10594 10596 10599 10604 10607 10612 10615 10616 10621 10623 10624 10627 10630 10632 10634 10636 10638 10639 10639 10641 10641 10643 10644 10645 10646 10647 10648 10650 10650 10651 10653 10653 10652 10654 10655 10655 10656 10657 10658 10657 10658 10659 10658 10658 10658 10658 10658 10659 10660 10662 10662 10660 10659 10662 10662 10661 10661 10660 10659 10658 10657 10655 10653 10653 10654 10652
10638 10632 10626 10620 10615 10610 10606 10603 10600 10597 10594 10592 10590 10587 10586 10585 10584 10584 10585 10585 10586 10587 10589 10591 10594 10598 10603 10607 10610 10612 10617 10619 10621 10624 10626 10628 10630 10632 10634 10635 10637 10638 10639 10640 10641 10642 10643 10644 10646 10646 10647 10649 10650 10649 10650 10651 10651 10652 10654 10654 10655 10654 10655 10657 10655 10654 10655 10655 10654 10655 10655 10658 10660 10658 10653 10655 10659 10658 10658 10657 10654 10654 10654 10651 10648 10648 10649 10646
10637 10630 10624 10618 10612 10607 10603 10599 10596 10593 10590 10588 10585 10583 10581 10580 10579 10579 10579 10580 10581 10582 10584 10586 10589 10594 10599 10603 10605 10608 10612 10615 10618 10620 10622 10625 10627 10629 10630 10632 10634 10635 10636 10637 10637 10639 10640 10642 10643 10644 10645 10646 10646 10646 10648 10648 10648 10649 10650 10651 10651 10650 10653 10655 10652 10649 10652 10652 10649 10650 10651 10652 10657 10658 10651 10649 10654 10654 10654 10653 10650 10650 10650 10647 10644 10643 10643 10641
10636 10629 10623 10617 10611 10605 10601 10597 10593 10590 10587 10584 10581 10579 10577 10575 10575 10574 10574 10575 10577 10578 10580 10582 10585 10590 10594 10598 10600 10605 10609 10612 10614 10616 10619 10621 10623 10625 10627 10629 10630 10632 10633 10634 10635 10636 10637 10639 10640 10641 10642 10642 10643 10644 10645 10645 10645 10646 10647 10648 10648 10647 10649 10652 10650 10646 10647 10649 10646 10646 10646 10647 10651 10655 10652 10647 10647 10650 10650 10649 10647 10646 10645 10642 10640 10638 10637 10635
10635 10629 10622 10616 10610 10604 10599 10595 10591 10587 10584 10581 10578 10576 10574 10572 10572 10571 10571 10572 10573 10575 10576 10578 10582 10586 10590 10594 10597 10602 10605 10607 10610 10612 10615 10617 10619 10621 10623 10625 10627 10629 10630 10631 10632 10633 10634 10636 10637 10638 10639 10639 10640 10641 10642 10642 10642 10643 10644 10644 10644 10644 10645 10646 10648 10647 10643 10643 10644 10643 10641 10642 10644 10647 10650 10646 10642 10645 10646 10644 10642 10641 10640 10638 10635 10634 10631 10629
10635 10629 10622 10616 10609 10603 10598 10593 10589 10586 10582 10579 10576 10573 10572 10570 10570 10569 10570 10570 10571 10572 10574 10576 10578 10582 10586 10590 10593 10598 10601 10603 10606 10609 10611 10614 10616 10618 10620 10622 10623 10625 10627 10628 10629 10630 10632 10633 10633 10635 10636 10636 10637 10638 10639 10638 10639 10641 10641 10641 10640 10641 10642 10639 10642 10647 10643 10637 10639 10640 10638 10638 10638 10639 10644 10644 10639 10639 10642 10640 10638 10636 10634 10633 10631 10629 10627 10624
10636 10629 10623 10616 10610 10604 10598 10593 10588 10584 10581 10577 10574 10572 10570 10569 10569 10568 10568 10568 10569 10570 10571 10573 10575 10579 10583 10586 10590 10594 10597 10600 10603 10605 10608 10610 10612 10615 10616 10619 10620 10622 10623 10624 10625 10627 10628 10629 10630 10632 10633 10633 10634 10635 10635 10635 10636 10638 10637 10638 10637 10637 10638 10635 10636 10643 10643 10635 10634 10637 10635 10633 10634 10633 10636 10640 10636 10635 10637 10637 10635 10633 10630 10628 10626 10624 10621 10620
10636 10630 10624 10618 10611 10605 10599 10593 10589 10584 10580 10577 10574 10572 10570 10569 10568 10568 10567 10567 10568 10569 10570 10571 10573 10576 10580 10582 10587 10591 10593 10596 10599 10602 10605 10607 10609 10612 10613 10615 10617 10618 10620 10620 10622 10625 10625 10626 10627 10628 10629 10630 10631 10631 10631 10632 10633 10633 10633 10634 10635 10634 10633 10630 10631 10636 10639 10634 10630 10633 10632 10629 10629 10628 10629 10633 10633 10631 10632 10633 10631 10629 10627 10624 10623 10619 10616 10614
10638 10632 10626 10619 10613 10607 10600 10595 10590 10585 10581 10578 10575 10572 10570 10569 10568 10567 10566 10566 10567 10568 10569 10570 10572 10574 10577 10580 10584 10588 10590 10592 10595 10599 10602 10604 10606 10609 10610 10612 10613 10615 10616 10617 10619 10621 10621 10622 10624 10624 10626 10626 10627 10628 10626 10628 10630 10629 10629 10630 10630 10630 10628 10626 10625 10628 10634 10632 10626 10627 10629 10626 10625 10624 10623 10626 10629 10628 10627 10628 10626 10625 10623 10620 10619 10616 10612 10610
10639 10633 10627 10621 10615 10609 10603 10597 10592 10587 10583 10579 10576 10573 10571 10570 10568 10567 10566 10566 10566 10567 10568 10569 10571 10573 10576 10579 10581 10584 10587 10589 10592 10595 10598 10600 10603 10606 10607 10608 10610 10611 10612 10613 10616 10617 10617 10619 10620 10621 10622 10623 10624 10623 10621 10624 10625 10625 10625 10626 10626 10626 10625 10624 10621 10622 10629 10629 10622 10621 10624 10622 10621 10621 10620 10619 10622 10625 10623 10623 10622 10620 10619 10616 10615 10612 10609 10606
10641 10635 10629 10623 10617 10611 10605 10599 10594 10589 10584 10581 10578 10575 10572 10570 10568 10568 10567 10566 10566 10567 10568 10569 10570 10572 10574 10576 10578 10581 10583 10586 10589 10592 10593 10596 10600 10603 10604 10605 10606 10607 10608 10610 10612 10613 10613 10614 10616 10617 10619 10620 10619 10617 10617 10620 10621 10620 10621 10622 10621 10621 10621 10620 10618 10618 10622 10623 10619 10617 10619 10619 10617 10618 10618 10615 10616 10619 10620 10618 10617 10616 10614 10612 10611 10609 10605 10603
10644 10637 10632 10626 10620 10614 10608 10602 10597 10592 10587 10583 10580 10576 10573 10571 10569 10568 10567 10566 10566 10567 10568 10568 10569 10570 10572 10574 10576 10578 10580 10583 10586 10588 10590 10592 10596 10598 10599 10601 10603 10604 10605 10606 10608 10608 10608 10610 10613 10614 10615 10615 10613 10612 10614 10615 10616 10616 10617 10617 10617 10617 10617 10616 10614 10614 10616 10616 10614 10613 10614 10613 10613 10614 10614 10612 10612 10614 10614 10613 10613 10612 10610 10608 10607 10605 10602 10598
10646 10640 10634 10629 10623 10617 10612 10606 10601 10596 10591 10587 10582 10577 10574 10572 10571 10570 10568 10567 10567 10568 10568 10568 10568 10569 10570 10572 10574 10576 10578 10581 10583 10586 10587 10590 10592 10593 10594 10596 10598 10600 10601 10603 10604 10604 10604 10607 10609 10610 10611 10609 10608 10609 10610 10610 10611 10612 10612 10612 10612 10612 10613 10612 10609 10609 10611 10611 10609 10610 10611 10608 10608 10609 10608 10607 10609 10609 10609 10608 10608 10608 10607 10605 10603 10602 10599 10595
10649 10643 10637 10632 10626 10621 10615 10610 10604 10599 10594 10590 10586 10581 10578 10576 10574 10572 10571 10570 10569 10569 10568 10568 10568 10568 10569 10571 10572 10574 10577 10579 10581 10583 10585 10587 10588 10589 10590 10592 10593 10596 10597 10599 10600 10599 10600 10603 10605 10607 10606 10604 10603 10605 10605 10606 10607 10608 10608 10607 10608 10608 10608 10607 10605 10604 10606 10607 10605 10605 10606 10604 10604 10604 10602 10602 10603 10603 10603 10603 10603 10603 10602 10601 10599 10598 10596 10592
10652 10646 10641 10635 10630 10624 10619 10614 10608 10603 10598 10594 10590 10585 10582 10580 10577 10575 10574 10572 10571 10569 10568 10568 10568 10568 10569 10570 10571 10573 10575 10577 10578 10580 10582 10583 10585 10586 10587 10588 10590 10591 10593 10594 10594 10595 10597 10599 10601 10601 10601 10600 10600 10600 10601 10603 10604 10603 10602 10602 10604 10604 10603 10602 10600 10600 10601 10602 10602 10601 10600 10600 10600 10599 10598 10598 10598 10597 10597 10598 10598 10598 10597 10597 10595 10594 10593 10591
10654 10649 10644 10639 10633 10628 10623 10618 10612 10607 10602 10598 10594 10589 10586 10584 10581 10578 10576 10574 10572 10570 10569 10568 10568 10568 10569 10569 10570 10572 10573 10574 10576 10577 10578 10580 10581 10582 10584 10585 10586 10587 10589 10590 10589 10591 10593 10594 10596 10597 10597 10596 10595 10596 10597 10599 10599 10597 10596 10599 10600 10599 10599 10598 10596 10596 10597 10598 10600 10597 10594 10596 10596 10594 10593 10594 10593 10592 10592 10593 10593 10593 10592 10592 10591 10591 10590 10589
10656 10651 10647 10642 10637 10632 10627 10622 10617 10612 10607 10603 10598 10594 10591 10589 10586 10583 10579 10577 10575 10572 10570 10568 10568 10568 10569 10569 10570 10570 10571 10572 10573 10574 10575 10577 10577 10579 10580 10581 10582 10583 10585 10586 10585 10587 10589 10589 10590 10592 10592 10590 10590 10593 10594 10594 10594 10592 10593 10595 10595 10594 10594 10593 10592 10592 10592 10595 10597 10593 10588 10591 10592 10590 10589 10589 10588 10587 10587 10587 10588 10588 10588 10587 10587 10586 10586 10586
10658 10654 10649 10645 10640 10635 10630 10626 10621 10617 10612 10608 10604 10600 10597 10594 10590 10586 10583 10581 10578 10575 10572 10569 10568 10569 10569 10569 10570 10570 10570 10571 10571 10572 10572 10573 10574 10575 10576 10577 10578 10579 10580 10581 10582 10583 10585 10585 10585 10586 10587 10586 10586 10589 10589 10589 10589 10588 10589 10589 10588 10589 10588 10588 10588 10587 10588 10592 10592 10587 10584 10586 10588 10588 10585 10583 10583 10583 10582 10582 10583 10583 10583 10583 10582 10582 10582 10582
10660 10656 10652 10647 10643 10638 10633 10629 10625 10620 10616 10612 10609 10605 10602 10599 10595 10590 10587 10584 10581 10578 10575 10572 10571 10571 10570 10570 10570 10570 10570 10569 10570 10570 10570 10570 10570 10571 10572 10573 10574 10575 10575 10577 10577 10577 10580 10581 10580 10579 10581 10581 10582 10584 10584 10584 10584 10583 10584 10584 10582 10583 10582 10582 10583 10582 10585 10587 10585 10582 10582 10582 10584 10585 10582 10578 10579 10579 10578 10578 10579 10579 10579 10579 10579 10578 10578 10579
10661 10657 10654 10650 10646 10641 10637 10632 10628 10624 10619 10615 10613 10609 10606 10603 10599 10593 10590 10587 10584 10582 10578 10576 10575 10574 10573 10573 10571 10570 10569 10568 10568 10568 10568 10567 10567 10567 10568 10569 10570 10570 10570 10572 10572 10572 10574 10576 10576 10574 10575 10576 10577 10578 10578 10579 10578 10577 10578 10577 10577 10577 10576 10577 10578 10578 10581 10582 10580 10578 10578 10579 10580 10581 10578 10574 10575 10575 10574 10574 10573 10574 10575 10574 10574 10575 10575 10575
10663 10659 10656 10652 10648 10644 10640 10635 10631 10627 10622 10619 10616 10612 10609 10606 10602 10597 10594 10591 10588 10585 10581 10579 10578 10577 10576 10574 10571 10569 10568 10567 10566 10566 10566 10564 10564 10565 10564 10565 10566 10565 10565 10566 10567 10568 10569 10571 10571 10569 10570 10572 10572 10572 10573 10573 10573 10573 10572 10571 10572 10572 10571 10572 10573 10573 10576 10577 10575 10573 10574 10577 10576 10574 10573 10571 10571 10571 10571 10571 10569 10569 10570 10569 10569 10571 10571 10572
10664 10661 10657 10654 10650 10646 10642 10638 10634 10630 10625 10622 10619 10615 10612 10608 10603 10600 10597 10594 10591 10588 10585 10583 10581 10579 10577 10575 10572 10570 10568 10567 10566 10565 10564 10563 10562 10562 10562 10562 10562 10560 10561 10562 10562 10564 10564 10565 10565 10564 10566 10567 10567 10567 10568 10568 10568 10568 10567 10567 10568 10567 10565 10567 10568 10569 10570 10571 10571 10569 10571 10573 10570 10568 10568 10566 10566 10566 10566 10568 10567 10566 10565 10564 10564 10566 10567 10568
10665 10662 10659 10655 10652 10648 10644 10640 10636 10632 10628 10624 10621 10618 10614 10609 10605 10603 10600 10597 10594 10591 10589 10586 10584 10581 10578 10576 10574 10571 10569 10567 10566 10565 10564 10562 10560 10559 10559 10559 10558 10556 10557 10558 10558 10558 10559 10560 10559 10559 10560 10560 10561 10562 10562 10563 10563 10562 10563 10563 10564 10561 10560 10564 10565 10564 10565 10567 10567 10565 10565 10568 10566 10565 10564 10561 10561 10562 10561 10562 10563 10563 10562 10561 10560 10561 10562 10565
10666 10663 10660 10657 10653 10649 10646 10642 10638 10635 10630 10626 10625 10621 10616 10611 10608 10606 10603 10600 10598 10595 10592 10589 10586 10584 10581 10578 10576 10573 10571 10569 10567 10565 10563 10561 10559 10557 10557 10556 10555 10554 10554 10554 10553 10554 10554 10554 10554 10554 10554 10553 10554 10556 10556 10557 10556 10556 10558 10558 10557 10556 10556 10559 10561 10559 10560 10563 10563 10560 10561 10563 10561 10560 10560 10557 10557 10558 10555 10556 10559 10559 10559 10558 10557 10557 10557 10560
10667 10664 10661 10658 10655 10651 10647 10643 10640 10636 10631 10629 10628 10623 10617 10614 10611 10609 10606 10604 10601 10598 10595 10592 10589 10586 10584 10581 10579 10576 10573 10570 10568 10565 10563 10560 10558 10556 10555 10554 10552 10551 10550 10549 10549 10548 10549 10550 10547 10548 10549 10547 10547 10550 10549 10550 10550 10550 10551 10550 10551 10552 10551 10552 10555 10554 10554 10558 10558 10556 10557 10558 10554 10555 10555 10552 10552 10552 10550 10552 10555 10554 10554 10554 10554 10553 10553 10554
10668 10665 10662 10659 10656 10653 10649 10645 10641 10637 10634 10632 10629 10624 10620 10617 10614 10611 10609 10606 10603 10600 10597 10594 10591 10588 10586 10583 10580 10578 10575 10572 10569 10566 10563 10560 10558 10556 10555 10552 10550 10549 10547 10546 10545 10543 10544 10544 10542 10542 10543 10541 10541 10543 10542 10543 10544 10544 10543 10544 10545 10546 10545 10544 10547 10548 10548 10551 10553 10551 10552 10552 10548 10550 10551 10546 10545 10547 10546 10548 10550 10549 10550 10550 10549 10550 10550 10550
10669 10666 10663 10660 10657 10654 10651 10647 10643 10640 10637 10634 10630 10625 10623 10620 10617 10614 10611 10608 10605 10602 10599 10596 10593 10590 10587 10584 10581 10578 10575 10572 10570 10567 10564 10561 10559 10557 10554 10551 10548 10546 10544 10542 10541 10539 10538 10539 10537 10536 10536 10536 10536 10537 10535 10535 10537 10537 10538 10538 10539 10540 10539 10538 10539 10541 10542 10544 10545 10545 10546 10546 10543 10545 10545 10541 10540 10542 10542 10543 10544 10543 10545 10546 10545 10545 10546 10546
10670 10667 10664 10661 10659 10655 10652 10648 10644 10641 10638 10635 10631 10628 10625 10622 10619 10616 10613 10609 10606 10603 10600 10597 10593 10590 10587 10584 10581 10578 10575 10572 10569 10566 10564 10561 10559 10556 10553 10550 10547 10544 10541 10538 10536 10534 10533 10533 10533 10531 10530 10530 10529 10528 10528 10528 10530 10531 10531 10531 10532 10533 10532 10532 10534 10535 10536 10537 10537 10538 10540 10539 10537 10538 10539 10536 10535 10537 10536 10536 10539 10539 10539 10541 10541 10540 10540 10541
10670 10667 10665 10662 10659 10656 10652 10649 10645 10642 10639 10636 10633 10629 10627 10624 10621 10617 10614 10611 10607 10604 10601 10597 10594 10591 10588 10585 10581 10578 10575 10572 10569 10565 10562 10560 10557 10554 10552 10549 10545 10542 10539 10536 10533 10530 10528 10528 10527 10526 10524 10524 10522 10520 10521 10523 10523 10524 10524 10525 10525 10525 10524 10526 10529 10529 10529 10530 10530 10531 10534 10534 10531 10531 10532 10531 10530 10532 10530 10530 10533 10534 10534 10535 10536 10536 10536 10536
10670 10668 10665 10663 10660 10657 10653 10650 10647 10644 10641 10638 10634 10631 10628 10624 10621 10618 10616 10612 10609 10606 10602 10598 10595 10592 10589 10585 10582 10578 10575 10572 10569 10565 10562 10558 10555 10552 10550 10546 10543 10540 10536 10533 10530 10527 10524 10523 10522 10520 10518 10518 10516 10514 10514 10516 10516 10516 10517 10518 10518 10518 10517 10518 10521 10522 10521 10522 10524 10525 10527 10528 10526 10525 10526 10526 10525 10526 10526 10524 10526 10528 10528 10530 10530 10530 10531 10531
10671 10669 10666 10663 10660 10657 10654 10651 10648 10646 10642 10639 10635 10632 10629 10625 10622 10619 10616 10613 10610 10607 10603 10600 10596 10593 10589 10586 10582 10579 10576 10572 10569 10565 10562 10558 10554 10550 10547 10543 10540 10537 10533 10530 10527 10524 10521 10519 10517 10515 10514 10512 10510 10509 10509 10509 10509 10509 10509 10510 10510 10511 10511 10510 10513 10514 10513 10515 10518 10518 10520 10521 10520 10519 10520 10520 10519 10520 10520 10519 10520 10522 10523 10524 10523 10523 10526 10526
10672 10669 10666 10664 10661 10658 10655 10652 10649 10646 10643 10640 10636 10633 10630 10627 10624 10620 10617 10614 10611 10608 10604 10601 10597 10593 10590 10586 10582 10579 10576 10572 10569 10565 10562 10558 10553 10549 10545 10541 10538 10534 10530 10527 10523 10520 10517 10515 10513 10510 10509 10507 10504 10505 10504 10502 10502 10502 10502 10501 10502 10503 10504 10504 10506 10506 10506 10509 10510 10510 10514 10514 10512 10513 10514 10514 10513 10514 10515 10514 10514 10515 10516 10518 10518 10518 10520 10521
10671 10669 10667 10664 10661 10658 10656 10653 10650 10647 10644 10641 10638 10635 10632 10629 10625 10622 10618 10615 10612 10608 10605 10601 10598 10594 10591 10587 10583 10579 10575 10572 10568 10565 10561 10557 10553 10549 10544 10540 10536 10531 10527 10523 10520 10516 10512 10510 10508 10505 10504 10502 10500 10499 10499 10496 10496 10496 10495 10495 10495 10496 10497 10498 10499 10499 10500 10502 10502 10503 10507 10507 10506 10508 10508 10507 10508 10507 10508 10509 10508 10509 10510 10511 10512 10513 10514 10515
10671 10669 10666 10664 10661 10658 10656 10653 10650 10648 10645 10642 10639 10636 10633 10630 10627 10623 10619 10616 10612 10609 10606 10602 10599 10595 10591 10587 10583 10580 10576 10572 10568 10564 10559 10555 10552 10548 10544 10539 10535 10530 10525 10521 10516 10512 10508 10504 10502 10500 10498 10497 10495 10494 10493 10491 10490 10490 10489 10489 10489 10489 10490 10490 10491 10492 10493 10495 10496 10498 10500 10500 10501 10502 10501 10501 10503 10502 10502 10503 10503 10502 10504 10505 10506 10507 10508 10509
10671 10668 10666 10663 10661 10658 10655 10653 10650 10647 10645 10642 10639 10637 10634 10631 10627 10623 10620 10616 10612 10609 10606 10602 10599 10595 10591 10587 10583 10579 10576 10572 10567 10563 10558 10554 10550 10546 10542 10538 10533 10528 10523 10518 10513 10509 10504 10499 10496 10494 10492 10490 10489 10488 10487 10485 10484 10483 10483 10484 10484 10484 10484 10484 10485 10486 10485 10488 10492 10492 10493 10495 10496 10496 10495 10495 10496 10496 10496 10497 10497 10496 10497 10499 10500 10501 10502 10503
10670 10668 10666 10663 10660 10658 10655 10652 10650 10647 10644 10642 10639 10636 10634 10631 10627 10624 10621 10617 10613 10610 10606 10602 10599 10595 10591 10588 10583 10579 10575 10571 10567 10563 10558 10554 10549 10543 10539 10534 10530 10525 10520 10515 10510 10506 10501 10496 10492 10489 10486 10485 10483 10482 10480 10480 10479 10477 10477 10478 10477 10477 10478 10478 10479 10479 10478 10482 10486 10485 10486 10489 10489 10489 10489 10488 10489 10491 10490 10490 10490 10491 10492 10493 10494 10495 10496 10497
10670 10668 10666 10663 10660 10658 10655 10652 10649 10646 10644 10641 10638 10635 10632 10630 10627 10624 10621 10617 10613 10609 10606 10602 10598 10594 10590 10587 10583 10579 10574 10570 10565 10561 10557 10552 10547 10542 10537 10531 10526 10521 10516 10511 10506 10502 10497 10492 10488 10484 10481 10479 10478 10476 10475 10474 10473 10472 10471 10471 10471 10471 10471 10472 10473 10473 10473 10476 10479 10479 10481 10483 10483 10482 10483 10483 10483 10484 10484 10483 10484 10485 10487 10488 10487 10488 10489 10490
10669 10667 10665 10663 10660 10657 10655 10652 10649 10646 10643 10640 10637 10634 10631 10629 10627 10623 10620 10617 10613 10609 10605 10602 10598 10594 10590 10586 10581 10578 10574 10569 10565 10560 10555 10551 10546 10540 10535 10529 10523 10517 10512 10507 10502 10496 10492 10487 10483 10480 10475 10473 10472 10470 10469 10468 10468 10467 10466 10465 10465 10465 10466 10467 10467 10468 10468 10469 10472 10474 10475 10476 10476 10476 10477 10478 10478 10479 10478 10477 10478 10480 10482 10482 10481 10481 10482 10483
10669 10667 10664 10662 10659 10657 10654 10651 10649 10646 10643 10640 10637 10634 10632 10629 10625 10622 10618 10615 10612 10608 10605 10601 10597 10593 10589 10585 10580 10576 10572 10568 10564 10559 10554 10549 10544 10538 10532 10526 10520 10513 10507 10502 10496 10491 10486 10482 10477 10474 10470 10467 10466 10465 10463 10462 10462 10461 10461 10460 10459 10459 10460 10461 10461 10461 10462 10464 10465 10467 10469 10470 10470 10470 10471 10472 10473 10474 10472 10471 10472 10474 10475 10475 10476 10475 10475 10475
10668 10666 10664 10661 10659 10656 10653 10651 10648 10645 10642 10640 10637 10634 10631 10628 10624 10621 10617 10614 10610 10607 10603 10600 10596 10592 10588 10584 10580 10575 10571 10566 10562 10557 10551 10546 10541 10536 10531 10524 10517 10510 10503 10497 10490 10485 10480 10476 10471 10468 10465 10462 10460 10459 10458 10457 10457 10457 10456 10455 10454 10454 10454 10454 10454 10455 10457 10458 10459 10461 10463 10464 10464 10464 10465 10465 10467 10468 10466 10465 10466 10468 10468 10469 10470 10469 10468 10469